Dover, DE

6:59 PM EDT on September 24, 2016 (GMT -0400)
Dover Air Force Base

Weather History for KDOV - January, 2014

Change the Weather History Date:

Sunday, January 5, 2014

  Actual Average Record
Temperature  
Mean Temperature 40 °F -  
Max Temperature 55 °F 44 °F 68 °F (1950)
Min Temperature 26 °F 27 °F 10 °F (1981)
Degree Days  
Heating Degree Days 24    
Moisture  
Dew Point 42 °F    
Average Humidity 99    
Maximum Humidity 100    
Minimum Humidity 93    
Precipitation  
Precipitation 0.07 in - - ()
Sea Level Pressure  
Sea Level Pressure 29.98 in    
Wind  
Wind Speed 6 mph (ESE)    
Max Wind Speed 14 mph    
Max Gust Speed -    
Visibility 5 miles    
Events Fog , Rain    
Averages and records for this station are not official NWS values.
T = Trace of Precipitation, MM = Missing Value Source: NWS Daily Summary

Daily Weather History Graph

Daily Weather History Graph

Search for Another Location

Airport or City:

Trip Planner

Search our weather history database for the weather conditions in past years. The results will help you decide how hot, cold, wet, or windy it might be!

Date:

Astronomy

Jan. 05, 2014 Rise Set
Actual Time 7:21 AM EST 4:53 PM EST
Civil Twilight 6:51 AM EST 5:23 PM EST
Nautical Twilight 6:18 AM EST 5:56 PM EST
Astronomical Twilight 5:45 AM EST 6:28 PM EST
Moon 10:03 AM EST (1/5) 10:16 PM EST (1/5)
Length of Visible Light 10h 31m
Length of Day
9h 32m
Waxing Crescent, 24% of the Moon is Illuminated
Jan 5
Waxing Crescent
Jan 7
First Quarter
Jan 15
Full
Jan 24
Last Quarter
Jan 30
New

Hourly Weather History & Observations

Time (EST) Temp. Windchill Dew Point Humidity Pressure Visibility Wind Dir Wind Speed Gust Speed Precip Events Conditions
12:43 AM 26.6 °F 22.6 °F 26.6 °F 100% 30.27 in 10.0 mi SSE 3.5 mph - N/A   Overcast
12:58 AM 27.9 °F 20.6 °F 26.2 °F 94% 30.29 in 10.0 mi SSE 6.9 mph - N/A   Overcast
1:08 AM 28.4 °F 21.2 °F 26.6 °F 93% 30.28 in 10.0 mi South 6.9 mph - N/A   Overcast
1:28 AM 28.4 °F 22.2 °F 26.6 °F 93% 30.28 in 10.0 mi South 5.8 mph - N/A   Overcast
1:58 AM 29.5 °F 23.4 °F 28.6 °F 96% 30.29 in 10.0 mi South 5.8 mph - N/A   Overcast
2:58 AM 30.9 °F 27.5 °F 30.4 °F 98% 30.29 in 10.0 mi South 3.5 mph - N/A   Overcast
3:58 AM 33.3 °F 28.9 °F 32.5 °F 97% 30.28 in 10.0 mi SW 4.6 mph - N/A   Overcast
4:58 AM 33.6 °F 29.4 °F 32.9 °F 97% 30.27 in 10.0 mi South 4.6 mph - N/A   Overcast
5:58 AM 34.0 °F - 33.3 °F 97% 30.26 in 10.0 mi SE 1.2 mph - N/A   Overcast
6:42 AM 32.0 °F - 32.0 °F 100% 30.27 in 10.0 mi NNW 2.3 mph - N/A Rain Light Freezing Rain
6:43 AM 32.0 °F - 32.0 °F 100% 30.27 in 10.0 mi NW 2.3 mph - N/A   Light Drizzle
6:58 AM 32.9 °F - 32.7 °F 99% 30.28 in 10.0 mi NNE 1.2 mph - 0.00 in   Light Drizzle
7:09 AM 32.0 °F 28.7 °F 32.0 °F 100% 30.27 in 9.0 mi ENE 3.5 mph - N/A   Overcast
7:26 AM 32.0 °F 27.5 °F 32.0 °F 100% 30.27 in 9.0 mi East 4.6 mph - N/A   Light Drizzle
7:58 AM 33.4 °F 28.1 °F 33.3 °F 99% 30.28 in 3.0 mi East 5.8 mph - 0.01 in   Light Drizzle
8:06 AM 32.0 °F 26.4 °F 32.0 °F 100% 30.27 in 5.0 mi East 5.8 mph - N/A   Overcast
8:58 AM 34.0 °F 29.8 °F 33.8 °F 99% 30.28 in 10.0 mi East 4.6 mph - 0.01 in   Overcast
9:43 AM 35.6 °F 32.8 °F 35.6 °F 100% 30.25 in 10.0 mi East 3.5 mph - N/A Rain Light Rain
9:54 AM 35.6 °F 31.7 °F 35.6 °F 100% 30.25 in 10.0 mi East 4.6 mph - N/A   Mostly Cloudy
9:58 AM 36.0 °F - 35.6 °F 99% 30.26 in 10.0 mi Variable 2.3 mph - 0.00 in   Mostly Cloudy
10:58 AM 37.2 °F - 36.9 °F 99% 30.23 in 10.0 mi NNE 1.2 mph - N/A   Overcast
11:58 AM 39.6 °F 37.4 °F 37.8 °F 93% 30.18 in 10.0 mi NE 3.5 mph - N/A   Overcast
12:58 PM 38.1 °F 35.7 °F 37.6 °F 98% 30.13 in 10.0 mi Variable 3.5 mph - N/A   Overcast
1:58 PM 39.0 °F - 38.8 °F 99% 30.11 in 10.0 mi ENE 2.3 mph - N/A   Overcast
2:58 PM 40.1 °F 38.0 °F 39.7 °F 99% 30.08 in 10.0 mi East 3.5 mph - N/A   Overcast
3:58 PM 41.5 °F - 41.2 °F 99% 30.07 in 10.0 mi Calm Calm - N/A   Scattered Clouds
4:58 PM 38.7 °F - 38.5 °F 99% 30.04 in 10.0 mi NNE 2.3 mph - N/A   Overcast
5:18 PM 39.2 °F 37.0 °F 39.2 °F 100% 30.02 in 10.0 mi Variable 3.5 mph - N/A   Overcast
5:33 PM 39.2 °F 37.0 °F 39.2 °F 100% 30.01 in 10.0 mi NE 3.5 mph - N/A   Overcast
5:43 PM 39.2 °F - 39.2 °F 100% 30.01 in 10.0 mi ENE 2.3 mph - N/A   Overcast
5:58 PM 38.8 °F - 38.8 °F 100% 30.00 in 10.0 mi NE 2.3 mph - N/A   Overcast
6:13 PM 39.2 °F 37.0 °F 39.2 °F 100% 29.98 in 6.0 mi East 3.5 mph - N/A   Overcast
6:18 PM 39.2 °F 37.0 °F 39.2 °F 100% 29.98 in 2.5 mi East 3.5 mph - N/A   Overcast
6:23 PM 41.0 °F 38.0 °F 41.0 °F 100% 29.97 in 1.0 mi East 4.6 mph - N/A   Mist
6:28 PM 41.0 °F 38.0 °F 41.0 °F 100% 29.97 in 0.5 mi East 4.6 mph - N/A Fog Fog
6:33 PM 41.0 °F 37.1 °F 41.0 °F 100% 29.96 in 0.5 mi East 5.8 mph - N/A Fog Fog
6:35 PM 41.0 °F 38.0 °F 41.0 °F 100% 29.96 in 0.5 mi East 4.6 mph - N/A Fog Fog
6:44 PM 41.0 °F 37.1 °F 41.0 °F 100% 29.96 in 0.5 mi East 5.8 mph - N/A Fog Fog
6:49 PM 42.8 °F 39.3 °F 42.8 °F 100% 29.96 in 0.5 mi East 5.8 mph - N/A Fog Fog
6:58 PM 41.9 °F 36.9 °F 41.9 °F 100% 29.95 in 0.5 mi ESE 8.1 mph - 0.00 in Fog Fog
7:38 PM 42.8 °F 37.0 °F 42.8 °F 100% 29.92 in 0.2 mi SE 10.4 mph - N/A Fog Fog
7:43 PM 44.6 °F 39.2 °F 44.6 °F 100% 29.92 in 0.2 mi ESE 10.4 mph - N/A Fog Fog
7:48 PM 44.6 °F 39.2 °F 44.6 °F 100% 29.91 in 0.5 mi SE 10.4 mph - N/A Fog Fog
7:58 PM 44.8 °F 40.4 °F 44.8 °F 100% 29.92 in 0.2 mi ESE 8.1 mph - N/A Fog Fog
8:28 PM 44.6 °F 40.2 °F 44.6 °F 100% 29.89 in 0.2 mi SE 8.1 mph - N/A Fog Fog
8:36 PM 44.6 °F 40.2 °F 44.6 °F 100% 29.88 in 0.2 mi SE 8.1 mph - N/A Fog , Rain Light Rain
8:45 PM 46.4 °F 41.9 °F 46.4 °F 100% 29.87 in 0.2 mi SE 9.2 mph - N/A Fog Fog
8:51 PM 46.4 °F 41.9 °F 46.4 °F 100% 29.87 in 0.2 mi SE 9.2 mph - N/A Fog , Rain Light Rain
8:58 PM 47.1 °F - 46.9 °F 99% 29.87 in 0.2 mi SE 10.4 mph - 0.00 in Fog , Rain Light Rain
9:03 PM 48.2 °F - 48.2 °F 100% 29.85 in 0.5 mi SE 11.5 mph - N/A Fog Light Drizzle
9:04 PM 48.2 °F - 48.2 °F 100% 29.85 in 0.5 mi SE 11.5 mph - N/A Fog Fog
9:05 PM 48.2 °F - 48.2 °F 100% 29.85 in 0.5 mi SE 11.5 mph - N/A Fog , Rain Light Rain
9:10 PM 48.2 °F - 48.2 °F 100% 29.85 in 0.5 mi SE 11.5 mph - N/A Fog , Rain Light Rain
9:20 PM 48.2 °F - 48.2 °F 100% 29.84 in 0.8 mi SE 12.7 mph - N/A Rain Light Rain
9:25 PM 48.2 °F - 48.2 °F 100% 29.83 in 1.5 mi SE 11.5 mph - N/A Rain Light Rain
9:30 PM 48.2 °F - 48.2 °F 100% 29.83 in 2.5 mi SE 11.5 mph - N/A Rain Light Rain
9:35 PM 48.2 °F - 48.2 °F 100% 29.82 in 3.0 mi SE 11.5 mph - N/A Rain Light Rain
9:45 PM 48.2 °F - 48.2 °F 100% 29.82 in 4.0 mi SE 10.4 mph - N/A   Overcast
9:50 PM 50.0 °F - 50.0 °F 100% 29.82 in 6.0 mi SE 11.5 mph - N/A   Overcast
9:56 PM 50.0 °F - 50.0 °F 100% 29.81 in 8.0 mi SE 11.5 mph - N/A Rain Light Rain
9:58 PM 49.3 °F - 49.3 °F 100% 29.82 in 8.0 mi SE 11.5 mph - 0.02 in Rain Light Rain
10:03 PM 50.0 °F - 50.0 °F 100% 29.81 in 10.0 mi SE 11.5 mph - N/A Rain Light Rain
10:05 PM 50.0 °F - 50.0 °F 100% 29.81 in 10.0 mi SE 10.4 mph - N/A   Overcast
10:14 PM 50.0 °F - 50.0 °F 100% 29.81 in 10.0 mi SE 10.4 mph - N/A Rain Light Rain
10:19 PM 50.0 °F - 50.0 °F 100% 29.80 in 7.0 mi SE 11.5 mph - N/A Rain Light Rain
10:39 PM 50.0 °F - 50.0 °F 100% 29.78 in 1.8 mi SE 9.2 mph - N/A Rain Light Rain
10:40 PM 50.0 °F - 50.0 °F 100% 29.78 in 1.5 mi SE 9.2 mph - N/A   Overcast
10:45 PM 50.0 °F - 50.0 °F 100% 29.77 in 0.8 mi SE 9.2 mph - N/A   Overcast
10:50 PM 50.0 °F - 50.0 °F 100% 29.77 in 1.0 mi SE 9.2 mph - N/A   Mostly Cloudy
10:55 PM 50.0 °F - 50.0 °F 100% 29.76 in 1.5 mi SE 10.4 mph - N/A   Mostly Cloudy
10:58 PM 50.4 °F - 50.4 °F 100% 29.77 in 1.8 mi SE 10.4 mph - 0.02 in   Overcast
10:59 PM 50.0 °F - 50.0 °F 100% 29.76 in 1.8 mi SE 8.1 mph - N/A Rain Light Rain
11:04 PM 51.8 °F - 51.8 °F 100% 29.76 in 1.0 mi SE 8.1 mph - N/A   Light Drizzle
11:09 PM 51.8 °F - 51.8 °F 100% 29.75 in 1.0 mi SE 11.5 mph - N/A   Light Drizzle
11:14 PM 51.8 °F - 51.8 °F 100% 29.75 in 1.8 mi SE 10.4 mph - N/A Rain Light Rain
11:29 PM 53.6 °F - 53.6 °F 100% 29.73 in 1.2 mi SSE 11.5 mph - N/A   Overcast
11:32 PM 53.6 °F - 53.6 °F 100% 29.73 in 1.2 mi SSE 11.5 mph - N/A Rain Light Rain
11:37 PM 53.6 °F - 53.6 °F 100% 29.73 in 2.0 mi SSE 11.5 mph - N/A Rain Light Rain
11:42 PM 55.4 °F - 53.6 °F 94% 29.72 in 4.0 mi SSE 13.8 mph - N/A Rain Light Rain
11:47 PM 55.4 °F - 53.6 °F 94% 29.72 in 7.0 mi SSE 12.7 mph - N/A Rain Light Rain
11:58 PM 55.4 °F - - N/A% 29.73 in 7.0 mi SSE 13.8 mph - 0.01 in Rain Light Rain